Location: ?????
(44.4284°N, 135.2222°E)
Time: 13:41:37
(UTC+00:00)

Daily predictions for brighter satellites

Satellite Brightness Start Highest point End
(mag) Time Altitude Azimuth Time Altitude Azimuth Time Altitude Azimuth
Lacrosse 5 rocket 2.7 12:00:04 10° WSW 12:03:26 36° NNW 12:06:46 10° NE
Cosmos 1420 Rocket 4.4 12:00:36 10° NNW 12:05:40 50° ENE 12:09:35 16° SE
Okean-O 2.9 12:02:38 10° S 12:06:58 66° WSW 12:11:20 10° NNW
Cosmos 1633 Rocket 4.1 12:03:17 10° NNE 12:07:12 31° ENE 12:09:56 17° SE
NOSS 3-2 (C) 4.3 12:03:26 10° WSW 12:08:18 47° NW 12:14:07 10° NNE
SL-08 R/B 4.2 12:07:57 10° N 12:12:21 49° WNW 12:16:46 10° SW
IRS-1C Rocket 4.4 12:09:40 16° SE 12:13:45 56° ENE 12:18:54 10° N
Meteor 1-13 Rocket 4.4 12:08:15 10° S 12:14:03 62° E 12:19:55 10° NNE
Ariane Rocket 3.2 12:11:38 16° SSE 12:15:32 58° ENE 12:20:31 10° N
S3M 4.2 12:11:01 13° SSE 12:16:24 53° E 12:22:21 10° NNE
Spot 2 Rocket 4.3 12:12:57 10° S 12:17:50 48° W 12:22:46 10° NNW
Cosmos 1553 Rocket 4.3 12:11:35 10° SSW 12:17:54 71° W 12:24:10 10° N
Cosmos 1833 Rocket 2.8 12:12:36 10° NNW 12:18:16 78° WSW 12:22:44 17° SSE
CZ-4 R/B 4.3 12:18:31 10° W 12:19:18 10° W 12:20:05 10° WNW
NOSS 2-1 (C) 3.8 12:17:16 10° S 12:21:02 32° ESE 12:24:03 10° ENE
USA 238 DEB 3.5 12:18:06 10° SSW 12:24:01 63° ESE 12:30:32 10° NE
USA 238 3.5 12:18:20 10° SSW 12:24:14 62° ESE 12:30:45 10° NE
Iridium 4 Rocket 3.4 12:20:14 13° S 12:24:52 78° E 12:29:38 10° N
Cosmos 923 Rocket 4.0 12:21:39 10° S 12:26:51 68° ESE 12:32:02 10° NNE
Cosmos 1709 Rocket 4.2 12:20:33 10° N 12:26:52 59° ENE 12:31:25 19° SSE
Terra 4.2 12:26:38 10° SW 12:29:50 18° W 12:33:03 10° NW
Iridium 45 4.0 12:29:12 26° S 12:30:47 76° E 12:33:55 10° N
BREEZE-M R/B 3.4 12:27:03 10° WSW 12:30:50 90° NNW 12:38:17 10° ENE
CZ-4B R/B 3.6 12:27:48 20° SSE 12:31:26 74° ENE 12:36:40 10° N
Cosmos 2112 Rocket 4.3 12:30:52 18° S 12:34:24 46° ESE 12:39:21 10° NNE
Okean O Rocket 3.1 12:32:25 10° SSW 12:36:20 32° W 12:40:17 10° NNW
Cosmos 2082 Rocket 3.2 12:35:40 10° N 12:40:49 35° NE 12:44:32 17° ESE
USA 186 3.5 12:41:30 12° SW 12:42:25 14° W 12:43:41 10° WNW
Cosmos 2278 Rocket 2.2 12:38:21 13° S 12:43:22 60° ESE 12:48:57 10° NNE
Meteor 1-21 4.2 12:41:38 18° S 12:45:51 70° E 12:51:30 10° NNE
Cosmos 1371 Rocket 4.3 12:40:57 10° NNW 12:46:06 56° ENE 12:48:59 25° SE
CZ-4B R/B 3.2 12:44:14 22° S 12:46:36 60° W 12:50:35 10° NNW
Cosmos 1470 Rocket 3.8 12:43:17 10° N 12:47:40 54° ENE 12:49:42 29° SE
SWARM A 4.2 12:46:16 10° N 12:49:30 76° W 12:50:48 33° S
Meteor 1-16 Rocket 4.3 12:46:42 10° N 12:52:21 72° E 12:55:45 26° SSE
Cosmos 1328 Rocket 3.7 12:49:36 17° SSW 12:52:55 71° W 12:57:15 10° N
Cosmos 494 Rocket 3.9 12:49:49 17° S 12:53:48 72° ESE 12:59:03 10° NNE
Cosmos 1745 Rocket 4.2 12:47:48 10° NNW 12:54:05 70° W 12:58:53 18° S
Cosmos 1943 Rocket 2.2 12:51:15 10° SSW 12:56:55 83° WNW 13:02:35 10° NNE
GP-B 3.9 12:52:44 10° N 12:56:57 48° W 13:00:21 15° SSW
SPOT 3 Rocket 4.4 12:54:36 16° SSW 12:58:25 44° W 13:03:21 10° NNW
BREEZE-M DEB (TANK) 1.4 12:56:50 10° WNW 12:58:49 87° SSW 12:58:53 82° SE
Okean 3 4.2 13:00:39 30° ESE 13:01:27 33° E 13:05:05 10° NNE
Helios 1B rocket 4.2 13:01:39 13° E 13:02:38 14° ENE 13:04:32 10° NNE
Cosmos 1174 4.1 13:08:05 40° SE 13:08:28 41° ESE 13:11:52 10° NE
Cosmos 1953 3.7 13:05:29 10° NNW 13:08:32 27° W 13:10:30 17° SW
SWAS 4.5 13:08:25 40° SSE 13:09:26 51° ESE 13:13:22 10° NE
Meteor 1-12 Rocket 4.3 13:04:50 10° N 13:10:34 72° ENE 13:13:31 30° SSE
USA 215 4.2 13:05:30 10° E 13:11:35 44° NNE 13:17:42 10° NW
Cosmos 1441 Rocket 3.5 13:15:49 38° E 13:15:49 38° E 13:18:41 10° NNE
USA 276 4.3 13:18:23 13° ENE 13:18:23 13° ENE 13:18:48 10° ENE
SL-8 R/B 3.5 13:15:30 10° WSW 13:20:13 78° SSE 13:24:58 10° ENE
Helios 1A 3.1 13:17:42 10° NNE 13:21:33 49° E 13:22:13 44° SE
COSMOS 2406 4.3 13:16:43 10° N 13:21:55 35° NE 13:25:15 19° ESE
Cosmos 2369 Rocket 3.8 13:22:00 17° ESE 13:22:27 17° E 13:25:54 10° ENE
ARIANE 5 R/B 4.2 13:21:00 19° E 13:22:42 24° ENE 13:26:13 10° NNE
USA 81 4.2 13:18:56 10° N 13:24:08 59° E 13:26:11 35° SE
NOSS 3-1 (C) 4.1 13:25:30 22° ESE 13:25:30 22° ESE 13:29:04 10° ENE
Cosmos 1048 Rocket 4.0 13:23:22 34° S 13:25:35 64° ESE 13:30:49 10° NNE
Cosmos 1680 Rocket 4.2 13:20:45 10° SW 13:25:47 52° WNW 13:30:53 10° NNE
NOSS 2-1 (E) 3.6 13:22:34 10° SW 13:26:34 56° NW 13:29:47 10° NNE
Cosmos 1624 Rocket 4.2 13:21:48 10° NNW 13:27:04 64° WSW 13:29:22 33° S
Cosmos 1869 Rocket 4.1 13:23:06 10° N 13:27:14 44° ENE 13:28:21 36° ESE
CZ-2C R/B 3.2 13:29:16 31° W 13:29:17 31° W 13:31:47 10° NNW
Cosmos 2074 Rocket 4.2 13:26:23 10° N 13:32:32 60° E 13:35:19 32° SE
SL-4 R/B 4.0 13:36:12 11° ENE 13:36:12 11° ENE 13:36:20 10° ENE
Cosmos 1515 Rocket 3.8 13:31:50 32° SSW 13:33:43 65° W 13:38:01 10° N
Cosmos 1656 Rocket 3.9 13:33:14 37° SSE 13:34:55 49° ESE 13:40:15 10° NE
Cosmos 2056 Rocket 3.9 13:31:02 10° NNW 13:35:57 50° WSW 13:37:57 32° SSW
ALOS 2 4.0 13:37:03 24° E 13:38:28 29° ENE 13:42:14 10° N
Lacrosse 5 rocket 4.4 13:39:04 10° NW 13:40:46 13° NNW 13:42:28 10° NNE
USA 59 Rocket 1.9 13:43:25 10° W 13:46:10 21° NW 13:48:35 10° N
Nadezhda 1 Rocket 4.2 13:53:08 36° SSE 13:55:26 57° E 14:01:32 10° NNE
ARIANE 6 FM1 Upper Stage 2.8 13:58:37 54° ESE 13:58:37 54° ESE 14:02:32 10° NE
Cosmos 1400 Rocket 3.4 13:57:11 10° NNW 14:00:34 37° W 14:00:57 36° WSW
BREEZE-M DEB (TANK) 4.3 13:46:22 10° W 14:02:40 61° N 14:07:18 10° E
COSMOS 2455 4.1 14:03:07 23° ESE 14:03:38 23° ESE 14:08:12 10° ENE
Spot 4 4.0 14:03:09 44° SE 14:04:30 64° ENE 14:09:18 10° N
Cosmos 1315 Rocket 4.2 14:06:30 10° NNE 14:09:41 25° ENE 14:10:09 24° E
Cosmos 967 Rocket 4.4 14:08:13 34° SSW 14:11:13 74° ESE 14:17:41 10° NE
Okean 1-7 3.3 14:11:00 46° ESE 14:11:17 47° E 14:15:22 10° NNE
PSLV R/B 4.0 14:06:53 10° NNE 14:11:27 53° E 14:12:07 48° SE
USA 290 4.2 14:14:14 10° N 14:16:40 20° ENE 14:16:49 20° ENE
ACS3 Solar Sail 3.0 14:14:01 10° NE 14:18:31 23° E 14:20:02 21° ESE
Cosmos 2184 Rocket 4.2 14:12:49 10° NNW 14:19:03 65° W 14:21:38 36° SSW
Cosmos 2154 Rocket 4.1 14:13:59 10° NNW 14:20:10 69° W 14:22:36 38° SSW
ATLAS 5 CENTAUR R/B 1.6 14:22:34 42° NNE 14:22:34 42° NNE 14:24:47 10° NNE
Cosmos 1110 Rocket 4.5 14:18:37 10° NNW 14:23:33 46° WSW 14:24:45 39° SW
Cosmos 2082 Rocket 3.0 14:19:43 10° NW 14:24:52 38° WSW 14:26:20 32° SW
Cosmos 2278 Rocket 4.2 14:23:15 10° WSW 14:27:51 25° NW 14:32:27 10° N
SL-8 Rocket 4.5 14:22:53 10° N 14:28:51 50° ENE 14:31:18 33° SE
Cosmos 1328 4.1 14:32:46 47° W 14:32:50 47° WNW 14:36:17 10° N
Cosmos 1452 Rocket 3.7 14:28:24 10° NNW 14:33:36 61° WSW 14:34:48 48° SSW
Lacrosse 4 Rocket 3.0 14:30:06 10° NNW 14:33:49 30° NE 14:35:34 22° E
Meteor 2-5 Rocket 4.1 14:32:14 41° SE 14:33:54 54° E 14:39:36 10° NNE
USA 308 3.6 14:34:27 32° NW 14:34:52 34° NNW 14:38:24 10° NE
Helios 1B rocket 3.0 14:35:31 37° W 14:35:31 37° W 14:38:28 10° NNW
Cosmos 2341 Rocket 4.2 14:36:01 10° N 14:42:11 60° ENE 14:44:34 37° SE
MetOp-A 3.6 14:44:42 51° E 14:44:58 52° ENE 14:48:39 10° N
Helios 1B 4.4 14:42:41 10° NNE 14:46:57 82° WNW 14:47:29 67° SW
Meteor 2-13 Rocket 4.5 14:46:53 43° SSE 14:48:53 68° E 14:54:57 10° NNE
USA 276 4.2 14:47:07 10° WNW 14:49:18 24° N 14:51:41 10° NE
CZ-2C R/B 2.8 14:49:12 41° SE 14:50:52 62° ENE 14:56:04 10° N
Exosat Rocket 4.4 14:47:54 31° SW 14:50:54 69° WNW 14:58:53 10° NNE
CZ-2C R/B 2.9 14:48:22 10° NNE 14:53:44 85° ESE 14:55:00 53° S
USA 215 3.1 14:51:02 32° SE 14:54:20 77° SW 15:00:54 10° NW
ARIANE 5 R/B 3.5 14:58:22 35° WSW 14:58:47 36° W 15:02:54 10° NNW
SL-8 R/B 4.4 14:58:05 10° W 15:02:43 53° N 15:07:23 10° ENE
Cosmos 2369 Rocket 2.2 15:03:43 40° SW 15:05:46 72° WNW 15:11:24 10° NNE
COSMOS 2406 3.9 15:01:00 10° NW 15:06:13 39° WSW 15:07:16 36° SW
Cosmos 1869 3.3 15:05:03 10° N 15:08:11 61° NE 15:08:11 61° NE
Cosmos 2297 3.7 15:07:20 42° SW 15:09:22 79° WNW 15:15:07 10° NNE
NOSS 3-1 (A) 2.8 15:09:16 57° SSE 15:09:49 61° ESE 15:15:08 10° NE
SL-4 R/B 2.9 15:09:29 27° WNW 15:10:33 35° NNW 15:13:29 10° NE
ALOS 2 3.8 15:14:26 29° WSW 15:14:44 29° W 15:18:34 10° NW
NOSS 3-1 (C) 3.7 15:12:45 25° WSW 15:15:15 48° NW 15:20:40 10° NNE
Cosmos 1733 Rocket 4.2 15:13:22 10° NNW 15:17:07 30° W 15:17:28 29° W
Cosmos 2228 Rocket 3.5 15:19:15 45° WSW 15:19:57 50° WNW 15:24:16 10° N
Cosmos 1703 Rocket 3.4 15:21:18 68° S 15:21:49 84° E 15:26:14 10° N
Meteor 2-15 Rocket 4.3 15:16:49 10° N 15:22:57 86° W 15:25:05 43° S
Cosmos 2366 rocket 4.1 15:19:45 10° NNW 15:26:03 68° W 15:28:15 41° SSW
Cosmos 2181 Rocket 4.0 15:28:47 42° S 15:31:08 87° W 15:37:36 10° N
Landsat 5 3.1 15:29:27 10° NNE 15:33:10 76° ESE 15:33:11 76° ESE
Cosmos 1356 Rocket 3.7 15:31:24 10° NNW 15:35:19 50° W 15:35:22 50° W
Cosmos 1821 Rocket 3.9 15:32:55 10° N 15:39:02 80° W 15:41:15 42° S
Cosmos 1315 Rocket 4.3 15:42:03 10° NW 15:44:48 23° W 15:44:48 23° W
Cosmos 407 Rocket 4.4 15:44:02 30° SE 15:45:23 35° ESE 15:50:00 10° NE
Cosmos 2218 Rocket 4.3 15:40:06 10° NNW 15:46:11 52° W 15:48:21 36° SW
COSMOS 2455 3.1 15:46:13 32° SW 15:49:01 64° NW 15:55:01 10° NNE
Cosmos 1818 4.2 15:48:08 26° WSW 15:50:56 49° NW 15:56:15 10° NNE
Cosmos 1908 Rocket 4.2 15:53:26 10° NNW 15:57:33 39° W 15:58:01 37° WSW
GEOS 3 Rocket 4.0 15:56:57 40° SW 15:57:41 43° WSW 16:02:49 10° NW
ACS3 Solar Sail 2.0 15:55:30 10° N 16:01:01 54° WNW 16:03:23 33° SW
Cosmos 1656 4.2 16:01:22 33° SSE 16:03:12 45° ESE 16:08:26 10° NE
Cosmos 1140 Rocket 3.5 16:03:57 42° SW 16:05:35 70° WNW 16:10:42 10° NNE
CENTAUR R/B 4.4 15:58:54 10° NNW 16:06:34 44° NE 16:15:22 10° ESE
Cosmos 304 Rocket 3.7 16:07:44 48° S 16:09:01 76° ESE 16:13:47 10° NNE
NOSS 2-2 (C) 4.0 16:06:38 10° NNW 16:10:21 58° NE 16:15:24 10° SE
Cosmos 1346 Rocket 2.5 16:10:13 64° SE 16:10:33 69° E 16:14:11 10° NNE
Lacrosse 4 Rocket 2.6 16:07:52 10° NW 16:10:56 28° W 16:10:56 28° W
Cosmos 1782 Rocket 3.9 16:12:31 10° NNW 16:16:44 48° W 16:17:26 44° WSW
DELTA 2 DEB (DPAF) 3.4 16:13:26 10° N 16:16:58 72° WNW 16:17:17 66° WSW
Cosmos 1763 Rocket 3.5 16:13:33 10° NNW 16:18:37 76° ENE 16:21:22 27° SSE
Cosmos 381 Rocket 4.5 16:16:49 35° SSW 16:19:44 89° ESE 16:26:11 10° NNE
Cosmos 371 Rocket 3.2 16:18:27 44° SSW 16:19:58 84° ESE 16:24:49 10° NNE
USA 276 3.6 16:19:53 10° NW 16:22:29 33° NNE 16:25:15 10° E
BREEZE-M DEB (TANK) 3.9 16:05:11 10° WNW 16:23:31 83° NNE 16:27:32 10° ESE
Meteor 2-19 Rocket 4.5 16:24:42 34° SSW 16:27:25 70° W 16:33:29 10° N
Meteor 1-21 Rocket 4.4 16:28:42 34° SSW 16:31:20 70° WNW 16:37:17 10° N
CZ-2C R/B 4.2 16:30:39 17° WSW 16:31:32 18° W 16:35:00 10° NW
USA 229 DEB 4.5 16:29:08 22° SSE 16:31:54 33° ESE 16:37:33 10° NE
Nimbus 7 Rocket 4.4 16:30:57 10° NNE 16:36:51 75° ESE 16:39:58 29° S
SJ 16-02 1.1 16:36:35 45° SSW 16:37:51 87° WNW 16:42:08 10° NNE
USA 215 4.5 16:38:21 21° WSW 16:38:21 21° WSW 16:42:42 10° WNW
IDEFIX/ARIANE 42P 2.7 16:34:17 10° NNE 16:39:30 68° ESE 16:42:08 30° S
Cosmos 2251 Rocket 4.1 16:37:06 26° SSE 16:39:46 49° ESE 16:44:55 10° NNE
MSX 3.9 16:34:44 10° NNE 16:40:31 71° ESE 16:43:41 28° S
FENGYUN 3A 4.1 16:35:36 10° NNE 16:40:51 54° E 16:43:54 24° SSE
SL-8 R/B 4.1 16:40:43 10° WNW 16:45:26 63° NNE 16:50:10 10° E
Cosmos 921 Rocket 3.9 16:44:13 28° WSW 16:45:36 36° WNW 16:49:29 10° N
Spot 1 4.3 16:42:25 10° N 16:47:20 73° WNW 16:49:23 34° SSW
SL-4 R/B 4.0 16:45:52 10° NW 16:48:23 21° N 16:50:52 10° NE
PSLV R/B 4.3 16:45:26 10° N 16:49:08 46° WNW 16:50:12 35° WSW
Cosmos 2297 Rocket 2.7 16:43:42 10° NNW 16:49:19 61° ENE 16:54:55 10° SE
Meteor 1-11 4.2 16:46:45 31° SSW 16:49:34 77° W 16:55:18 10° N
H-2A R/B 4.3 16:46:36 10° NE 16:50:05 18° E 16:53:29 10° SE
Cosmos 2369 Rocket 4.5 16:47:48 10° WNW 16:50:50 15° NW 16:53:51 10° N
Aureole 3 4.4 16:47:44 27° S 16:51:32 85° W 16:57:31 10° N
ADEOS II 4.4 16:51:40 10° NE 16:54:47 16° E 16:57:52 10° SE
Meteor 2-14 Rocket 4.4 16:51:58 25° S 16:55:44 86° E 17:01:56 10° N
Lacrosse 5 rocket 3.1 16:53:03 10° NNW 16:56:04 28° NNE 16:59:01 10° E
Cosmos 1378 Rocket 3.5 16:54:40 36° SSW 16:56:16 66° W 17:00:32 10° N
Meteor 2-1 Rocket 4.4 16:51:11 10° N 16:57:00 77° E 17:02:03 15° SSE
NPP 3.8 16:51:37 10° NNE 16:57:02 73° ESE 17:00:18 25° S
Cosmos 468 Rocket 4.0 16:52:57 10° NNW 16:58:05 83° ENE 17:02:42 13° SSE
Cosmos 1934 Rocket 4.3 16:54:20 10° NNW 17:00:28 54° W 17:04:06 25° SSW
Cosmos 1980 Rocket 4.2 16:56:56 10° SE 17:00:54 20° E 17:04:51 10° NE
Cosmos 2263 Rocket 4.4 17:03:48 10° N 17:08:28 26° NE 17:13:08 10° ESE
Cosmos 540 Rocket 4.0 17:09:29 10° NW 17:14:10 38° WSW 17:16:26 25° SSW
Cosmos 1727 Rocket 4.5 17:11:16 13° SSE 17:16:48 59° E 17:22:51 10° NNE
ADEOS Rocket 3.1 17:11:53 10° N 17:17:54 62° WNW 17:21:35 22° SW
Cosmos 405 Rocket 2.9 17:17:21 30° W 17:17:55 33° WNW 17:20:40 10° N
Cosmos 2084 Rocket 3.2 17:16:24 29° SW 17:18:22 79° NW 17:22:26 10° NE
Resurs 1-4 Rocket 3.2 17:15:32 10° NNE 17:20:27 39° E 17:25:22 10° SSE
NOSS 2-2 (E) 3.6 17:18:11 10° NW 17:21:59 80° NE 17:27:14 10° SE
Envisat 3.6 17:17:14 10° NNE 17:22:11 52° E 17:26:29 13° S
Okean 2 Rocket 3.0 17:18:46 10° NNW 17:23:09 77° W 17:26:20 18° S
Cosmos 1782 3.5 17:20:24 10° N 17:23:47 44° ENE 17:27:08 10° SSE
Cosmos 1674 Rocket 4.0 17:23:02 25° SW 17:25:20 49° WNW 17:29:38 10° N
Cosmos 1437 Rocket 4.2 17:23:05 10° N 17:26:10 30° ENE 17:29:13 10° SE
MOS 1-B Rocket 4.0 17:22:28 10° N 17:28:21 62° WNW 17:32:17 20° SW
Cosmos 841 Rocket 3.6 17:24:52 10° NNW 17:30:05 78° ENE 17:35:14 10° SSE
NOAA 11 4.2 17:24:40 10° NNE 17:30:13 85° WNW 17:34:24 18° SSW
Cosmos 2151 Rocket 4.1 17:28:59 10° NNW 17:33:14 43° W 17:35:53 21° SSW
Cosmos 2058 4.4 17:30:27 10° SSE 17:33:52 31° E 17:37:21 10° NNE
Cosmos 2100 Rocket 4.4 17:31:28 10° N 17:37:42 64° E 17:43:48 10° SSE
SL-24 DEB 4.1 17:36:21 17° S 17:39:41 64° W 17:44:06 10° N
ATLAS 3B R/B 3.1 17:34:20 17° SSW 17:40:29 73° ESE 17:48:21 10° NE
DMSP B5D2-2 4.0 17:37:05 10° SSE 17:42:20 83° WSW 17:47:39 10° NNW
Dummy Sat-01 4.5 17:42:55 10° N 17:46:35 76° W 17:49:41 14° S
Okean 1 Rocket 3.4 17:42:52 10° NNW 17:47:00 45° W 17:50:12 16° SSW
Cosmos 1954 Rocket 4.3 17:43:37 18° SW 17:47:20 54° WNW 17:52:24 10° NNE
Cosmos 1025 Rocket 4.2 17:48:02 17° SW 17:50:37 29° WNW 17:54:28 10° NNW
Cosmos 2221 Rocket 4.1 17:47:51 18° SSW 17:51:01 48° WNW 17:55:25 10° N
NOSS 2-2 (D) 4.1 17:48:43 10° NW 17:52:28 38° WSW 17:57:30 10° S
Gbstr 26 Del rocket 4.4 17:47:25 13° WSW 17:53:37 83° NNW 18:01:24 10° ENE
USA 276 1.9 17:52:26 10° WNW 17:55:20 55° SSW 17:58:20 10° SE
Cosmos 332 Rocket 4.2 17:51:59 16° SW 17:55:31 48° WNW 18:00:07 10° N
Cosmos 1697 Rocket 2.8 17:52:36 15° SW 17:57:12 69° WNW 18:02:50 10° NNE
CENTAUR R/B 3.4 17:49:24 10° NW 17:57:50 67° WSW 18:07:16 10° SSE
Cosmos 2292 Rocket 3.5 17:57:27 18° SW 17:59:29 41° WNW 18:03:02 10° N
ALOS 2.3 17:54:55 10° NNE 17:59:29 81° ESE 18:04:02 10° S
Cosmos 1975 Rocket 3.1 17:57:35 10° S 18:01:52 75° E 18:06:09 10° NNE
Cosmos 1000 Rocket 4.5 17:56:41 10° S 18:02:49 80° W 18:09:05 10° N
Cosmos 2227 Rocket 2.2 17:57:55 10° NNW 18:03:36 87° WSW 18:09:14 10° SSE
Sich 1 Rocket 4.4 18:01:52 10° NNW 18:06:00 35° W 18:09:52 11° SSW
CZ-2D R/B 2.2 18:01:54 10° NNE 18:07:22 90° N 18:12:44 10° SSW
Atlas 2A Centaur Rocket 4.3 18:07:50 10° SSE 18:08:30 10° SSE 18:09:15 10° SE
Cosmos 1802 Rocket 4.3 18:02:45 10° N 18:09:11 76° E 18:15:36 10° SSE
MOZ.5/SAFIR/RUBIN 5/SL-8 4.3 18:06:37 10° SSW 18:10:55 39° W 18:15:16 10° NNW
SJ 16-02 3.7 18:15:59 10° WNW 18:16:37 10° NW 18:17:15 10° NW
IDEFIX/ARIANE 42P 4.4 18:14:55 10° NNW 18:18:24 18° WNW 18:21:51 10° WSW
USA 229 DEB 4.0 18:16:36 10° WSW 18:22:26 51° NW 18:29:01 10° NNE
USA 229 4.0 18:16:36 10° WSW 18:22:27 52° NW 18:29:04 10° NNE
SL-4 R/B 2.9 18:23:14 10° NW 18:26:11 37° NNE 18:29:07 10° E
SL-8 R/B 3.9 18:23:07 10° WNW 18:27:42 49° SSW 18:32:17 10° SE
Cosmos 2233 Rocket 4.5 18:21:56 10° N 18:28:11 67° E 18:34:27 10° SSE
SeaSat 1 2.5 18:24:21 10° SSE 18:29:15 87° WSW 18:34:11 10° NNW
H-2A R/B 2.2 18:24:40 10° N 18:29:48 60° WNW 18:34:46 10° SSW
Cosmos 158 Rocket 4.2 18:26:53 10° NNW 18:31:46 71° ENE 18:36:36 10° SSE
Cosmos 2219 4.1 18:26:34 10° NNW 18:32:09 57° ENE 18:37:44 10° SE
USA 281 4.3 18:25:54 10° SE 18:32:10 50° ENE 18:38:28 10° NNW
Lacrosse 5 rocket 1.3 18:29:28 10° WNW 18:32:38 37° SW 18:35:43 10° SSE
Cosmos 2297 Rocket 3.5 18:28:44 10° NW 18:32:50 21° W 18:36:55 10° SSW
Aureole 3 Rocket 3.9 18:29:49 10° N 18:34:26 51° ENE 18:37:55 10° SSE
ADEOS II 2.2 18:29:37 10° N 18:34:50 70° WNW 18:40:01 10° SSW
Cosmos 1455 Rocket 4.1 18:31:28 10° NNW 18:35:09 28° W 18:38:50 10° SSW
ARGOS 3.4 18:30:30 10° NNE 18:35:53 72° ESE 18:41:17 10° S
Cosmos 1933 3.5 18:32:34 10° N 18:36:22 70° E 18:40:08 10° SSE
H-2A R/B 2.4 18:34:15 10° S 18:38:04 57° WSW 18:41:58 10° NNW
